KE5KZS Weather Reports


Display with metric or nautical units.
time (UTC)temp
F
wind
direction
speed
MPH
gust
MPH
rain 1hr
in
rain 24hr
in
rain mn
in
humidity
%
barometer
mb
20260905193017 103 203 3.0 8.0 0.00 0.00 0.00 41 1011.5
20260905192017 102 158 3.0 8.0 0.00 0.00 0.00 43 1011.8
20260905191017 102 203 4.0 8.0 0.00 0.00 0.00 43 1011.9
20260905190017 102 113 3.0 7.0 0.00 0.00 0.00 41 1012.1
20260905185017 103 203 2.0 5.0 0.00 0.00 0.00 42 1012.2
20260905184017 102 135 3.0 7.0 0.00 0.00 0.00 43 1012.4
20260905183017 101 225 4.0 9.0 0.00 0.00 0.00 43 1012.4
20260905182017 100 90 3.0 7.0 0.00 0.00 0.00 46 1012.5
20260905181057 100 135 2.0 4.0 0.00 0.00 0.00 45 1012.8
20260905180017 100 203 3.0 10.0 0.00 0.00 0.00 46 1012.8
20260905175017 100 113 2.0 6.0 0.00 0.00 0.00 45 1013.0
20260905174037 99 135 3.0 8.0 0.00 0.00 0.00 46 1012.9
20260905173017 100 158 3.0 7.0 0.00 0.00 0.00 46 1013.0
20260905172037 99 180 3.0 9.0 0.00 0.00 0.00 47 1013.2
20260905171057 98 158 1.0 4.0 0.00 0.00 0.00 48 1013.3
20260905170017 98 203 3.0 8.0 0.00 0.00 0.00 49 1013.3
20260905165017 97 158 2.0 3.0 0.00 0.00 0.00 48 1013.3
20260905164017 97 203 3.0 8.0 0.00 0.00 0.00 49 1013.4
20260905163017 96 158 2.0 6.0 0.00 0.00 0.00 50 1013.3
20260905162017 96 203 2.0 6.0 0.00 0.00 0.00 50 1013.4
20260905161017 96 135 2.0 6.0 0.00 0.00 0.00 52 1013.4
20260905160017 95 180 2.0 5.0 0.00 0.00 0.00 54 1013.5
20260905155017 94 315 1.0 3.0 0.00 0.00 0.00 55 1013.4
20260905154017 94 203 1.0 4.0 0.00 0.00 0.00 55 1013.5
20260905153037 94 203 1.0 4.0 0.00 0.00 0.00 56 1013.6
20260905152017 94 203 2.0 5.0 0.00 0.00 0.00 57 1013.5
20260905151017 93 180 3.0 5.0 0.00 0.00 0.00 58 1013.5
20260905150017 93 135 1.0 4.0 0.00 0.00 0.00 59 1013.4
20260905145017 92 203 1.0 4.0 0.00 0.00 0.00 60 1013.4
20260905144017 92 158 2.0 5.0 0.00 0.00 0.00 61 1013.4
20260905143017 91 180 1.0 3.0 0.00 0.00 0.00 63 1013.3
20260905142017 90 180 2.0 4.0 0.00 0.00 0.00 64 1013.4
20260905141017 89 203 2.0 5.0 0.00 0.00 0.00 66 1013.3
20260905140017 88 203 1.0 4.0 0.00 0.00 0.00 69 1013.1
20260905135017 87 180 2.0 4.0 0.00 0.00 0.00 72 1013.1
20260905134017 85 180 2.0 5.0 0.00 0.00 0.00 74 1013.1
20260905133017 83 180 2.0 4.0 0.00 0.00 0.00 77 1012.9
20260905132017 81 180 1.0 3.0 0.00 0.00 0.00 81 1012.9
20260905131017 79 0.0 0.0 0.00 0.00 0.00 84 1012.9
20260905130017 78 0.0 0.0 0.00 0.00 0.00 86 1012.6
20260905125017 77 0.0 0.0 0.00 0.00 0.00 86 1012.5
20260905124017 76 0.0 0.0 0.00 0.00 0.00 86 1012.4
20260905123037 76 0.0 0.0 0.00 0.00 0.00 86 1012.4
20260905122017 76 0.0 0.0 0.00 0.00 0.00 84 1012.2
20260905121017 77 0.0 0.0 0.00 0.00 0.00 83 1012.2
20260905120017 77 0.0 0.0 0.00 0.00 0.00 82 1012.2
20260905115017 77 0.0 0.0 0.00 0.00 0.00 83 1012.3
20260905114017 78 0.0 0.0 0.00 0.00 0.00 83 1012.1
20260905113057 78 0.0 1.0 0.00 0.00 0.00 82 1012.0
20260905112017 78 0.0 1.0 0.00 0.00 0.00 82 1012.0
20260905111554 78 0.0 0.0 0.00 0.00 0.00 80 1012.0
20260905111017 79 0.0 0.0 0.00 0.00 0.00 80 1012.0
20260905110017 79 0.0 0.0 0.00 0.00 0.00 80 1012.1
20260905105017 80 0.0 1.0 0.00 0.00 0.00 80 1012.2
20260905104017 80 180 1.0 2.0 0.00 0.00 0.00 81 1012.3
20260905103017 80 0.0 2.0 0.00 0.00 0.00 79 1012.4
20260905102037 80 0.0 2.0 0.00 0.00 0.00 79 1012.4
20260905101037 80 180 1.0 2.0 0.00 0.00 0.00 78 1012.5
20260905100017 81 0.0 1.0 0.00 0.00 0.00 77 1012.4
20260905095037 81 0.0 0.0 0.00 0.00 0.00 76 1012.4
20260905094017 82 180 1.0 3.0 0.00 0.00 0.00 76 1012.2
20260905093017 82 180 2.0 6.0 0.00 0.00 0.00 77 1012.1
20260905092037 82 135 1.0 3.0 0.00 0.00 0.00 76 1012.0
20260905091017 82 135 1.0 2.0 0.00 0.00 0.00 76 1012.0
20260905090037 82 135 1.0 4.0 0.00 0.00 0.00 75 1012.1
20260905085017 82 180 1.0 4.0 0.00 0.00 0.00 75 1012.0
20260905084017 82 180 1.0 2.0 0.00 0.00 0.00 76 1012.0
20260905083017 82 0.0 3.0 0.00 0.00 0.00 73 1012.0
20260905082017 83 180 1.0 2.0 0.00 0.00 0.00 72 1011.9
20260905081017 83 180 1.0 4.0 0.00 0.00 0.00 72 1011.8
20260905080037 83 180 1.0 3.0 0.00 0.00 0.00 71 1011.8
20260905075017 83 180 1.0 3.0 0.00 0.00 0.00 71 1011.8
20260905074017 84 180 1.0 3.0 0.00 0.00 0.00 70 1011.9
20260905073017 84 180 2.0 5.0 0.00 0.00 0.00 70 1012.0
20260905072017 84 180 2.0 4.0 0.00 0.00 0.00 69 1012.2
20260905071017 84 158 2.0 5.0 0.00 0.00 0.00 69 1012.2
20260905070017 85 180 2.0 5.0 0.00 0.00 0.00 69 1012.3
20260905065017 85 180 1.0 4.0 0.00 0.00 0.00 68 1012.2
20260905064017 85 225 2.0 5.0 0.00 0.00 0.00 68 1012.3
20260905063017 85 135 1.0 5.0 0.00 0.00 0.00 67 1012.2
20260905062017 86 180 3.0 6.0 0.00 0.00 0.00 66 1012.1
20260905061037 86 180 3.0 6.0 0.00 0.00 0.00 66 1012.2
20260905060017 86 158 3.0 8.0 0.00 0.00 0.00 66 1012.3
20260905055017 86 135 2.0 7.0 0.00 0.00 0.00 65 1012.2
20260905054017 87 158 2.0 6.0 0.00 0.00 0.00 64 1012.1
20260905053017 87 158 3.0 5.0 0.00 0.00 0.00 64 1011.8
20260905052017 87 158 2.0 7.0 0.00 0.00 0.00 63 1011.8
20260905051017 88 180 3.0 6.0 0.00 0.00 0.00 63 1011.8
20260905050017 88 158 4.0 11.0 0.00 0.00 0.00 62 1011.8
20260905045015 88 158 3.0 6.0 0.00 0.00 0.00 62 1011.8
20260905044015 89 135 5.0 5.0 0.00 0.00 0.00 61 1011.8
20260905043015 89 158 2.0 6.0 0.00 0.00 0.00 61 1011.8
20260905042015 89 158 4.0 10.0 0.00 0.00 0.00 60 1011.8
20260905041015 89 203 3.0 8.0 0.00 0.00 0.00 60 1011.7
20260905040035 90 135 3.0 8.0 0.00 0.00 0.00 59 1011.7
20260905035015 90 135 4.0 8.0 0.00 0.00 0.00 58 1011.8
20260905034015 90 158 4.0 10.0 0.00 0.00 0.00 57 1011.8
20260905033015 90 135 2.0 7.0 0.00 0.00 0.00 56 1011.7
20260905032015 90 135 2.0 6.0 0.00 0.00 0.00 55 1011.4
20260905031015 90 135 3.0 6.0 0.00 0.00 0.00 55 1011.4
20260905030015 91 135 3.0 5.0 0.00 0.00 0.00 54 1011.4
20260905025015 91 135 2.0 4.0 0.00 0.00 0.00 55 1011.1
20260905024035 91 135 2.0 4.0 0.00 0.00 0.00 54 1011.0
20260905023035 92 113 2.0 5.0 0.00 0.00 0.00 54 1011.1
20260905022035 92 135 3.0 7.0 0.00 0.00 0.00 54 1010.8
20260905021015 92 113 3.0 7.0 0.00 0.00 0.00 53 1010.7
20260905020015 92 135 2.0 6.0 0.00 0.00 0.00 53 1010.4
20260905015036 93 135 3.0 9.0 0.00 0.00 0.00 53 1010.2
20260905014035 93 113 4.0 10.0 0.00 0.00 0.00 53 1010.1
20260905013015 93 113 4.0 8.0 0.00 0.00 0.00 52 1010.2
20260905012016 94 135 4.0 10.0 0.00 0.00 0.00 52 1010.1
20260905011015 94 135 4.0 12.0 0.00 0.00 0.00 51 1009.8
20260905010015 94 135 5.0 11.0 0.00 0.00 0.00 51 1009.8
20260905005015 95 135 3.0 10.0 0.00 0.00 0.00 50 1009.7
20260905004015 95 113 4.0 11.0 0.00 0.00 0.00 49 1009.6
20260905003015 96 135 4.0 9.0 0.00 0.00 0.00 48 1009.3
20260905002016 97 135 3.0 13.0 0.00 0.00 0.00 48 1009.4
20260905001015 97 113 4.0 8.0 0.00 0.00 0.00 46 1009.3
20260905000015 97 135 4.0 7.0 0.00 0.00 0.00 46 1009.4
20260904235015 97 135 3.0 10.0 0.00 0.00 0.00 45 1009.4
20260904234015 98 180 3.0 7.0 0.00 0.00 0.00 44 1009.2
20260904233015 98 135 3.0 6.0 0.00 0.00 0.00 44 1009.3
20260904232035 98 158 4.0 8.0 0.00 0.00 0.00 44 1009.3
20260904231015 98 135 3.0 8.0 0.00 0.00 0.00 44 1009.4
20260904230015 98 158 4.0 9.0 0.00 0.00 0.00 44 1009.3
20260904225015 98 90 3.0 6.0 0.00 0.00 0.00 45 1009.4
20260904224015 98 135 3.0 8.0 0.00 0.00 0.00 45 1009.6
20260904223015 99 180 3.0 8.0 0.00 0.00 0.00 45 1009.7
20260904222015 99 135 3.0 9.0 0.00 0.00 0.00 45 1009.7
20260904221015 99 158 3.0 8.0 0.00 0.00 0.00 45 1009.8
20260904220015 100 158 3.0 8.0 0.00 0.00 0.00 44 1009.7
20260904215015 101 113 3.0 9.0 0.00 0.00 0.00 43 1009.9
20260904214035 101 113 4.0 11.0 0.00 0.00 0.00 43 1009.8
20260904213015 101 180 4.0 11.0 0.00 0.00 0.00 43 1009.8
20260904212035 101 203 5.0 12.0 0.00 0.00 0.00 42 1010.2
20260904211015 101 113 4.0 10.0 0.00 0.00 0.00 43 1010.3
20260904210015 101 158 4.0 12.0 0.00 0.00 0.00 43 1010.4
20260904205017 101 135 5.0 13.0 0.00 0.00 0.00 43 1010.5
20260904204017 101 180 4.0 10.0 0.00 0.00 0.00 44 1010.7
20260904203017 101 113 5.0 11.0 0.00 0.00 0.00 45 1010.7
20260904202017 101 113 5.0 11.0 0.00 0.00 0.00 44 1010.9
20260904201017 102 135 4.0 9.0 0.00 0.00 0.00 44 1011.1
20260904200017 102 203 5.0 16.0 0.00 0.00 0.00 45 1011.2
20260904195017 101 158 3.0 8.0 0.00 0.00 0.00 46 1011.5
20260904194015 101 225 5.0 13.0 0.00 0.00 0.00 47 1011.5